This is the latest recevied weather packets stored in our database for station/object OE3KAR-14. If no packets are shown the sender has not sent any weather packets the latest 10 day(s).
| Time | Temp. | Humidity | Pressure | Rain* | Wind** | Luminosity | Snow |
|---|---|---|---|---|---|---|---|
| 1787843926 | 36.11° C | 26% | 998.5 hPa | - | - | - | - |
| 1787843623 | 36.11° C | 25% | 998.6 hPa | - | - | - | - |
| 1787843320 | 36.11° C | 25% | 998.6 hPa | - | - | - | - |
| 1787842715 | 37.78° C | 23% | 998.6 hPa | - | - | - | - |
| 1787842412 | 38.33° C | 23% | 998.8 hPa | - | - | - | - |
| 1787842110 | 39.44° C | 22% | 998.7 hPa | - | - | - | - |
| 1787841807 | 40° C | 21% | 998.8 hPa | - | - | - | - |
| 1787841504 | 40.56° C | 21% | 998.7 hPa | - | - | - | - |
| 1787841202 | 40.56° C | 21% | 998.6 hPa | - | - | - | - |
| 1787840899 | 41.11° C | 21% | 998.7 hPa | - | - | - | - |
| 1787840596 | 41.11° C | 21% | 998.7 hPa | - | - | - | - |
| 1787840294 | 41.11° C | 21% | 998.7 hPa | - | - | - | - |
| 1787839991 | 41.11° C | 21% | 998.6 hPa | - | - | - | - |
| 1787839688 | 40.56° C | 22% | 998.7 hPa | - | - | - | - |
| 1787839385 | 40.56° C | 22% | 998.6 hPa | - | - | - | - |
| 1787839083 | 40° C | 23% | 998.6 hPa | - | - | - | - |
| 1787838780 | 39.44° C | 23% | 998.6 hPa | - | - | - | - |
| 1787838477 | 38.89° C | 24% | 998.8 hPa | - | - | - | - |
| 1787838175 | 37.78° C | 25% | 998.8 hPa | - | - | - | - |
| 1787837872 | 37.78° C | 25% | 998.8 hPa | - | - | - | - |
| 1787837569 | 37.22° C | 25% | 998.7 hPa | - | - | - | - |
| 1787837267 | 36.67° C | 26% | 998.8 hPa | - | - | - | - |
| 1787836964 | 35.56° C | 27% | 998.9 hPa | - | - | - | - |
| 1787836661 | 36.11° C | 26% | 999 hPa | - | - | - | - |
| 1787836359 | 36.11° C | 26% | 999 hPa | - | - | - | - |
* Rain since midnight (hover to see other rain measurements)
** Current wind speed in m/s (hover to see current wind gust speed)